THOR ABLESTAR DEB, 13942

Orbit data source: Space-Track

THOR ABLESTAR DEB, 13942 is space debris in LEO originally from a launch on Thu, 29 Jun 1961 UTC launched from the Air Force Eastern Test Range (AFETR). Debris objects in space refer to the collection of defunct objects orbiting the Earth. Examples of debris include non-operational satellites, rocket bodies, and fragments generated from explosions, collisions, or faulty payload assembly.

Loading next visibility...
Identifier
13942, 1961-015KZ
Orbit
LEO
Country
Flag of USUS
Related business
Manufacturer
Unknown
Mission
Spacecraft
Bus & Motor
Unknown
Mass
Unknown
Launch date (UTC)
1961-06-29 (65 years ago)
Launch vehicle
Unknown
Launch site
Air Force Eastern Test Range (AFETR)
Object type
Payload
Rocket body
Debris
Shape & HBR
Unknown shape, 0.1 m
Radar Cross Section
Medium (>0.1 m² and <1 m²)

Expand to show TLE details & history
Last TLE update: 12 hours ago

TLE from 12 hours ago
0 THOR ABLESTAR DEB
1 13942U 61015KZ  26222.58110051  .00000536  00000-0  12319-2 0  9999
2 13942  65.8574 233.6629 0394178 246.2908 201.7530 13.07631202 75757
Epoch: 2026-08-10T13:56Z
TLE epoch observation values (Epoch: 2026-08-10T13:56:47.084Z)
Latitude
65.71611°
Longitude
146.75418°
Altitude
1,522.98 km
Speed
6.978 km/s
True Right ascension
21h 00m 02s
True Declination
65° 35' 58"
Sunlit
Object was in daylight at epoch
Visualization orbit readout
Latitude
Unknown
Longitude
Unknown
Altitude
Unknown
Speed
Unknown
Apparent Right ascension
Unknown
Apparent Declination
Unknown
Sunlit
N/A
Visualization observer readout
Local Sidereal Time
16:09:08
Azimuth
Unknown
Elevation
Unknown
Doppler factor
Unknown
Orbital elements
Apogee altitude
1,530.828 km
Perigee altitude
930.965 km
Semi-major axis
7,609.033 km
Eccentricity
0.03942
Inclination
65.8574°
RAAN
233.6629°
Arg. of periapsis
246.2908°
True anomaly
200.15257°
Mean anomaly
201.753°
Eccentric anomaly
200.94564°
Mean motion
3.27001 °/min
Orbital period
110.09 mins
BSTAR
0.0012319

Documentation

Showing up to 5 results
|